[[{"header":{"parameterUnit":"m.s-1","parameterCategory":1,"la1":30.2991,"la2":30.254,"lo1":-89.0895,"lo2":-89.0444,"dy":0.0017,"dx":0.0017,"nx":28,"ny":28,"refTime":"2024-03-16T03:00:00:Z","depth":0,"parameterNumber":2,"parameterNumberName":"U-component_of_WINDS"},"data":[0,0,0,0,0,0,0,0,0,0,0,0,0,0,0,0,0,0,0,0,0,0,0,0,0,0,0,0,0,0,0,0,0,0,0,0,0,0,0,0,0,0,0,0,0,0,0,0,0,0,0,0,0,0,0,0,0,0,-0.6203,-0.6204,0,-0.6314,-0.6315,-0.6316,-0.6351,-0.635,-0.635,-0.6349,-0.647,-0.6474,-0.6478,0,0,0,0,0,0,0,0,0,0,0,0,0,-0.6025,-0.6028,-0.6202,-0.6204,-0.6205,-0.6314,-0.6315,-0.6317,-0.6351,-0.635,-0.635,-0.6349,-0.6469,-0.6474,-0.6478,0,0,0,0,0,0,0,0,0,0,0,0,0,-0.6116,-0.6029,-0.6202,-0.6235,-0.6239,-0.6313,-0.6315,-0.6317,-0.6351,-0.635,-0.6349,-0.6349,-0.6468,-0.6473,-0.6479,-0.653,0,0,-0.6496,-0.6498,0,0,0,0,0,0,0,0,-0.6111,-0.6123,-0.6229,-0.6233,-0.6238,-0.6317,-0.6297,-0.6389,-0.6351,-0.6309,-0.6349,-0.6348,-0.6421,-0.643,-0.6453,-0.6536,-0.6541,-0.6496,-0.65,-0.6502,-0.6504,0,0,0,0,0,0,0,-0.6105,-0.6118,-0.6247,-0.623,-0.6236,-0.6246,-0.6258,-0.6315,-0.6368,-0.6312,-0.6315,-0.6327,-0.6423,-0.6448,-0.6456,-0.6543,-0.6496,-0.6501,-0.6505,-0.6507,-0.6673,-0.6674,0,0,0,0,0,0,-0.6092,-0.6113,-0.6243,-0.625,-0.6171,-0.625,-0.6264,-0.6293,-0.6368,-0.6378,-0.6328,-0.6329,-0.6438,-0.645,-0.6461,-0.6525,-0.6502,-0.6507,-0.6511,-0.6672,-0.6673,-0.6674,0,0,0,0,0,0,-0.6088,-0.6103,-0.6239,-0.6182,-0.62,-0.6254,-0.6287,-0.6295,-0.632,-0.6379,-0.639,-0.6343,-0.6438,-0.6453,-0.6512,-0.653,-0.651,-0.6515,-0.6671,-0.6672,-0.6674,-0.6655,0,0,0,0,0,0,-0.6083,-0.6101,-0.612,-0.6182,-0.6203,-0.6287,-0.6288,-0.6298,-0.6329,-0.6331,-0.6396,-0.6406,-0.6439,-0.6503,-0.6518,-0.6537,-0.652,-0.6669,-0.6671,-0.6673,-0.6655,-0.6656,-0.6657,0,0,0,0,0,-0.6076,-0.6113,-0.6121,-0.6137,-0.6227,-0.6288,-0.63,-0.6334,-0.633,-0.635,-0.6388,-0.6404,-0.6525,-0.6509,-0.6525,-0.6547,-0.6668,-0.6671,-0.6673,-0.6654,-0.6656,-0.6657,0,0,0,0,0,0,-0.6055,-0.6122,-0.6132,-0.6189,-0.6232,-0.6293,-0.632,-0.6335,-0.6382,-0.6382,-0.6425,-0.6439,-0.6495,-0.6527,-0.6508,-0.6601,-0.6598,-0.6603,-0.6578,-0.658,-0.6581,-0.6573,-0.6524,0,0,0,0,0,-0.6057,-0.6098,-0.6154,-0.62,-0.622,-0.6266,-0.6294,-0.6316,-0.6363,-0.6382,-0.6425,-0.6472,-0.652,-0.6552,-0.66,-0.6659,-0.6674,-0.6682,-0.6683,-0.6684,-0.6689,-0.6722,-0.6726,-0.6682,-0.6682,-0.6682,0,0,-0.6062,-0.6103,-0.6127,-0.6196,-0.6232,-0.6275,-0.6282,-0.6328,-0.636,-0.639,-0.6448,-0.648,-0.6536,-0.6595,-0.6623,-0.6623,-0.6704,-0.6687,-0.6687,-0.6692,-0.6724,-0.6729,-0.6732,-0.6683,-0.6683,-0.6683,0,0,-0.6092,-0.6127,-0.6168,-0.6203,-0.6256,-0.6285,-0.6295,-0.6353,-0.6375,-0.6433,-0.6456,-0.6497,-0.658,-0.6618,-0.6648,-0.669,-0.6706,-0.6704,-0.6712,-0.6743,-0.6747,-0.675,-0.6765,-0.677,-0.6709,-0.6709,-0.6709,0,-0.6092,-0.6156,-0.6188,-0.6231,-0.6262,-0.6287,-0.6329,-0.6363,-0.643,-0.6451,-0.6449,-0.6552,-0.6592,-0.6659,-0.6669,-0.6693,-0.6706,-0.6698,-0.6743,-0.6747,-0.6751,-0.6765,-0.6771,-0.6708,-0.6708,-0.6708,-0.6708,0,-0.6153,-0.6197,-0.6224,-0.6284,-0.6317,-0.636,-0.64,-0.643,-0.6449,-0.6479,-0.6538,-0.6585,-0.6642,-0.666,-0.668,-0.673,-0.6728,-0.6735,-0.6733,-0.6754,-0.6768,-0.6774,-0.6707,-0.6707,-0.6708,-0.6708,0,0,-0.6176,-0.6251,-0.626,-0.6287,-0.6346,-0.6382,-0.6426,-0.6479,-0.6504,-0.6549,-0.6588,-0.6656,-0.6661,-0.6695,-0.672,-0.6747,-0.6776,-0.675,-0.6752,-0.6753,-0.6834,-0.683,-0.6836,-0.6787,-0.6788,-0.6789,-0.683,0,-0.6214,-0.6291,-0.632,-0.6384,-0.6425,-0.6448,-0.6487,-0.6528,-0.6557,-0.6598,-0.6631,-0.6678,-0.6681,-0.6702,-0.673,-0.6767,-0.6793,-0.6764,-0.6825,-0.6827,-0.6811,-0.6843,-0.6839,-0.6875,-0.6836,-0.6837,-0.6837,0,-0.627,-0.6311,-0.6378,-0.643,-0.6449,-0.6482,-0.6533,-0.657,-0.6618,-0.6637,-0.6673,-0.6695,-0.6743,-0.6737,-0.6804,-0.6784,-0.681,-0.6832,-0.6834,-0.6842,-0.6834,-0.6852,-0.6888,-0.6893,-0.6847,-0.6846,-0.6845,0,-0.6279,-0.6353,-0.6402,-0.6424,-0.6486,-0.6509,-0.6537,-0.6583,-0.6612,-0.6657,-0.6677,-0.6727,-0.6755,-0.6794,-0.6829,-0.6821,-0.6893,-0.689,-0.6912,-0.6911,-0.6927,-0.6926,-0.6967,-0.6943,-0.6943,-0.6943,-0.6942,0,-0.6319,-0.636,-0.6406,-0.6437,-0.6482,-0.6516,-0.6561,-0.659,-0.663,-0.6668,-0.6692,-0.6727,-0.6771,-0.6812,-0.684,-0.6891,-0.6904,-0.6922,-0.6929,-0.692,-0.6918,-0.6939,-0.6937,-0.6944,-0.6944,-0.6943,-0.6943,0,-0.6339,-0.6372,-0.6427,-0.6479,-0.6493,-0.6525,-0.6571,-0.6602,-0.6631,-0.6678,-0.6691,-0.6737,-0.6787,-0.6825,-0.689,-0.6909,-0.6963,-0.6971,-0.6946,-0.695,-0.697,-0.6967,-0.7027,-0.7036,-0.7004,-0.7005,-0.7005,0,-0.6362,-0.6393,-0.6448,-0.6473,-0.6499,-0.6541,-0.657,-0.6603,-0.6633,-0.6688,-0.6712,-0.6763,-0.6805,-0.6883,-0.6923,-0.6973,-0.6982,-0.6999,-0.699,-0.698,-0.6983,-0.6981,-0.6984,-0.7001,-0.7001,-0.7001,-0.7001,0,-0.6401,-0.6415,-0.6455,-0.6499,-0.6533,-0.6571,-0.6609,-0.6629,-0.667,-0.6703,-0.6752,-0.6784,-0.6848,-0.6898,-0.6951,-0.6982,-0.6999,-0.7003,-0.7011,-0.7003,-0.6987,-0.6996,-0.695,-0.7003,-0.7003,-0.7002,-0.7002,-0.7002,-0.6424,-0.6452,-0.6494,-0.6537,-0.6568,-0.6603,-0.6634,-0.6665,-0.6706,-0.6759,-0.6777,-0.6828,-0.6873,-0.6946,-0.6976,-0.7017,-0.7018,-0.7029,-0.7032,-0.7035,-0.7034,-0.698,-0.7027,-0.7027,-0.7027,-0.7027,-0.7027,0,-0.6464,-0.6491,-0.653,-0.6581,-0.6615,-0.6624,-0.6667,-0.6696,-0.6739,-0.6779,-0.6818,-0.6874,-0.6922,-0.6965,-0.7015,-0.704,-0.7049,-0.7052,-0.7051,-0.7057,-0.703,-0.7018,-0.7043,-0.7043,-0.7043,-0.7043,-0.7043,-0.7043,-0.6488,-0.6535,-0.6554,-0.6617,-0.6645,-0.6693,-0.6716,-0.6749,-0.678,-0.684,-0.6879,-0.6905,-0.6947,-0.7,-0.7044,-0.7056,-0.7073,-0.7074,-0.7088,-0.7062,-0.706,-0.7058,-0.7047,-0.7078,-0.7078,-0.7112,-0.7112,-0.7113]},{"header":{"parameterUnit":"m.s-1","parameterCategory":1,"la1":30.2991,"la2":30.254,"lo1":-89.0895,"lo2":-89.0444,"dy":0.0017,"dx":0.0017,"nx":28,"ny":28,"refTime":"2024-03-16T03:00:00:Z","depth":0,"parameterNumber":3,"parameterNumberName":"V-component_of_WINDS"},"data":[0,0,0,0,0,0,0,0,0,0,0,0,0,0,0,0,0,0,0,0,0,0,0,0,0,0,0,0,0,0,0,0,0,0,0,0,0,0,0,0,0,0,0,0,0,0,0,0,0,0,0,0,0,0,0,0,0,0,-2.4835,-2.4835,0,-2.4837,-2.4837,-2.4837,-2.4771,-2.4769,-2.4767,-2.4766,-2.4769,-2.477,-2.4772,0,0,0,0,0,0,0,0,0,0,0,0,0,-2.4777,-2.4779,-2.4835,-2.4835,-2.4835,-2.4837,-2.4837,-2.4837,-2.4771,-2.4769,-2.4767,-2.4765,-2.4768,-2.477,-2.4772,0,0,0,0,0,0,0,0,0,0,0,0,0,-2.4793,-2.4779,-2.4835,-2.4802,-2.4799,-2.4837,-2.4837,-2.4837,-2.4772,-2.4769,-2.4766,-2.4764,-2.4768,-2.477,-2.4773,-2.4841,0,0,-2.478,-2.4782,0,0,0,0,0,0,0,0,-2.4792,-2.4795,-2.4807,-2.4805,-2.4801,-2.4801,-2.4817,-2.4838,-2.4772,-2.4782,-2.4766,-2.4763,-2.4782,-2.4783,-2.4789,-2.4841,-2.4841,-2.4781,-2.4782,-2.4783,-2.4784,0,0,0,0,0,0,0,-2.4791,-2.4795,-2.4835,-2.4807,-2.4804,-2.4789,-2.4788,-2.4821,-2.4797,-2.4781,-2.4776,-2.4778,-2.478,-2.4787,-2.4789,-2.4841,-2.4781,-2.4783,-2.4784,-2.4785,-2.4954,-2.4957,0,0,0,0,0,0,-2.4794,-2.4794,-2.4835,-2.4835,-2.479,-2.4792,-2.4791,-2.4804,-2.4796,-2.4792,-2.478,-2.4774,-2.4784,-2.4786,-2.4789,-2.4871,-2.4783,-2.4786,-2.4787,-2.4951,-2.4955,-2.4958,0,0,0,0,0,0,-2.4793,-2.4799,-2.4835,-2.4814,-2.4817,-2.4796,-2.481,-2.4805,-2.4812,-2.4795,-2.4791,-2.4791,-2.4782,-2.4785,-2.4829,-2.4871,-2.4787,-2.4789,-2.4948,-2.4952,-2.4957,-2.5036,0,0,0,0,0,0,-2.4792,-2.4799,-2.4823,-2.4815,-2.4819,-2.4875,-2.4813,-2.4807,-2.4817,-2.481,-2.4805,-2.4801,-2.478,-2.4826,-2.4832,-2.4873,-2.4791,-2.4944,-2.495,-2.4955,-2.503,-2.5043,-2.5054,0,0,0,0,0,-2.479,-2.4845,-2.4825,-2.483,-2.4849,-2.4878,-2.488,-2.4854,-2.482,-2.4846,-2.4836,-2.4802,-2.4865,-2.4831,-2.4837,-2.4879,-2.4941,-2.4948,-2.4955,-2.5024,-2.504,-2.5053,0,0,0,0,0,0,-2.4859,-2.4843,-2.4821,-2.4874,-2.4878,-2.4867,-2.4898,-2.4871,-2.4884,-2.4877,-2.4844,-2.4844,-2.4895,-2.4891,-2.4854,-2.4947,-2.4897,-2.4906,-2.4948,-2.4963,-2.4975,-2.4976,-2.4793,0,0,0,0,0,-2.488,-2.4904,-2.4889,-2.4938,-2.4941,-2.492,-2.4931,-2.4911,-2.4913,-2.4914,-2.4907,-2.4911,-2.4933,-2.4947,-2.4965,-2.5028,-2.5028,-2.506,-2.5072,-2.5082,-2.5091,-2.5128,-2.5143,-2.498,-2.498,-2.498,0,0,-2.4924,-2.4919,-2.4936,-2.4952,-2.4952,-2.498,-2.4921,-2.4951,-2.4972,-2.4919,-2.4962,-2.4957,-2.4959,-2.5015,-2.5039,-2.5013,-2.5136,-2.5091,-2.5099,-2.5102,-2.5136,-2.5152,-2.5166,-2.4984,-2.4984,-2.4983,0,0,-2.502,-2.5016,-2.5059,-2.5061,-2.5063,-2.5049,-2.5059,-2.5052,-2.5048,-2.509,-2.5052,-2.5076,-2.5112,-2.5117,-2.5124,-2.5225,-2.5196,-2.5231,-2.5295,-2.5332,-2.5345,-2.5356,-2.5396,-2.541,-2.5239,-2.5239,-2.524,0,-2.5075,-2.5113,-2.5084,-2.5118,-2.5128,-2.5081,-2.5126,-2.5129,-2.5137,-2.5145,-2.5116,-2.5163,-2.5161,-2.5219,-2.5245,-2.525,-2.5264,-2.5233,-2.5345,-2.5356,-2.5366,-2.5404,-2.5418,-2.5244,-2.5244,-2.5243,-2.5243,0,-2.5183,-2.5211,-2.5245,-2.5255,-2.5268,-2.5307,-2.5285,-2.5302,-2.5281,-2.527,-2.5316,-2.5313,-2.5331,-2.5343,-2.5322,-2.5399,-2.5384,-2.535,-2.53,-2.5387,-2.5422,-2.5436,-2.5251,-2.5249,-2.5248,-2.5246,0,0,-2.5321,-2.5316,-2.533,-2.5335,-2.5335,-2.5357,-2.5395,-2.5413,-2.543,-2.5437,-2.5471,-2.5503,-2.5474,-2.5482,-2.5462,-2.5494,-2.5579,-2.5457,-2.5457,-2.5483,-2.5668,-2.5695,-2.5712,-2.5559,-2.5561,-2.5563,-2.5669,0,-2.5417,-2.5481,-2.5457,-2.5524,-2.5551,-2.5509,-2.5542,-2.5547,-2.5539,-2.5562,-2.5552,-2.5578,-2.5535,-2.5541,-2.557,-2.5562,-2.5616,-2.5554,-2.5592,-2.5593,-2.5595,-2.573,-2.5758,-2.5858,-2.5682,-2.5684,-2.5686,0,-2.5536,-2.555,-2.562,-2.5619,-2.563,-2.566,-2.5677,-2.5699,-2.5704,-2.5696,-2.5708,-2.5681,-2.5721,-2.5669,-2.5724,-2.5683,-2.5697,-2.5696,-2.5699,-2.5703,-2.5647,-2.5741,-2.5888,-2.5905,-2.5706,-2.5704,-2.5703,0,-2.5635,-2.5671,-2.5718,-2.5724,-2.5723,-2.5746,-2.5747,-2.5749,-2.5763,-2.5778,-2.5788,-2.5807,-2.5818,-2.5835,-2.5815,-2.5779,-2.5875,-2.5821,-2.5872,-2.5873,-2.5896,-2.5895,-2.6051,-2.59,-2.59,-2.59,-2.5899,0,-2.5745,-2.5791,-2.5763,-2.5793,-2.5844,-2.5816,-2.5867,-2.5863,-2.5867,-2.5896,-2.586,-2.5889,-2.586,-2.5887,-2.5871,-2.5922,-2.5926,-2.5923,-2.5919,-2.5928,-2.5929,-2.5939,-2.5932,-2.5903,-2.5903,-2.5902,-2.5901,0,-2.5864,-2.5847,-2.5897,-2.5893,-2.5893,-2.5931,-2.5927,-2.5956,-2.5946,-2.5984,-2.5991,-2.5976,-2.6006,-2.5987,-2.6017,-2.6007,-2.6074,-2.6059,-2.6073,-2.607,-2.6124,-2.6121,-2.6293,-2.6316,-2.6148,-2.615,-2.6151,0,-2.5938,-2.5972,-2.5972,-2.599,-2.5993,-2.6021,-2.6036,-2.601,-2.6028,-2.6038,-2.6066,-2.6093,-2.6114,-2.6164,-2.6156,-2.618,-2.6167,-2.6226,-2.617,-2.618,-2.6172,-2.6172,-2.6177,-2.6238,-2.624,-2.6242,-2.6243,0,-2.6071,-2.6061,-2.6084,-2.6105,-2.6124,-2.6139,-2.6151,-2.6167,-2.6142,-2.6164,-2.6194,-2.621,-2.6242,-2.6271,-2.6291,-2.6293,-2.6266,-2.626,-2.6274,-2.6285,-2.6293,-2.6293,-2.6107,-2.6257,-2.6255,-2.6254,-2.6254,-2.6253,-2.6171,-2.6201,-2.6207,-2.6235,-2.6241,-2.6254,-2.6282,-2.6276,-2.6301,-2.6326,-2.6309,-2.6346,-2.6354,-2.6379,-2.6385,-2.6415,-2.6392,-2.6411,-2.6416,-2.6422,-2.6431,-2.6286,-2.6418,-2.6418,-2.6418,-2.6417,-2.6417,0,-2.6306,-2.6308,-2.6333,-2.6352,-2.6375,-2.6346,-2.6359,-2.638,-2.6413,-2.6422,-2.6444,-2.6481,-2.6509,-2.6505,-2.6531,-2.6556,-2.6544,-2.6564,-2.6564,-2.6565,-2.6449,-2.6436,-2.6574,-2.6574,-2.6574,-2.6574,-2.6574,-2.6573,-2.6378,-2.6429,-2.6421,-2.6476,-2.6478,-2.6514,-2.6525,-2.6538,-2.6546,-2.6589,-2.6612,-2.6609,-2.6614,-2.6641,-2.6666,-2.6664,-2.6677,-2.6703,-2.6697,-2.6588,-2.6573,-2.6558,-2.6546,-2.6705,-2.6705,-2.6811,-2.6812,-2.6813]}]]